Flag for Russia Weather past 2 weeks in Astrakhan, Russia

Now
61 °F

Clear.


Feels Like: 61 °F
Forecast: 65 / 90 °F
Wind: 1 mph from North

Location: Astrakhan

Current Time: Jul 30, 2014 at 5:52:29 AM

Latest Report: Jul 30, 2014 at 5:00 AM


Visibility: 10 mi

Pressure: 30.01 "Hg

Humidity: 72%

Dew point: 52 °F

Location of AstrakhanLocation

Historic Weather in Astrakhan — Graph

°F

Astrakhan temperature yesterday

Maximum temperature yesterday: 86 °F (at 1:30 PM)
Minimum temperature yesterday: 57 °F (at 5:30 AM)
Average temperature yesterday: 74 °F

Past Weeks' High & Low Weather Summary

 TemperatureHumidityPressure
High99 °F (Jul 17, 3:30 PM)78% (Jul 18, 2:30 AM)30.07 "Hg (Jul 18, 2:30 AM)
Low57 °F (Jul 29, 5:30 AM)12% (Jul 17, 3:30 PM)29.65 "Hg (Jul 19, 4:00 AM)
Average79 °F37%29.87 "Hg
* Reported Jul 15 4:00 AM — Jul 30 4:30 AM, Astrakhan, Weather by CustomWeather, © 2014

Note: Actual official high and low records may vary slightly from our data, if they occured in-between our weather recording intervals... More about our weather records

Advertising

Astrakhan weather history for previous 24 hours

 ConditionsComfort  
Time TempWeatherWind HumidityBarometerVisibility
4:30 AM
Jul 30
63 °FClear.1 mph68%30.01 "Hg10 mi
4:00 AM61 °FClear.1 mph72%30.01 "Hg10 mi
3:30 AM61 °FClear.1 mph72%30.01 "Hg10 mi
3:00 AM64 °FClear.1 mph68%30.01 "Hg10 mi
2:30 AM64 °FClear.No wind60%30.01 "Hg10 mi
2:00 AM66 °FClear.No wind64%30.01 "Hg10 mi
1:30 AM64 °FClear.3 mph68%30.01 "Hg10 mi
1:00 AM66 °FClear.1 mph68%30.01 "Hg10 mi
12:30 AM66 °FClear.1 mph68%30.01 "Hg10 mi
12:00 AM66 °FClear.3 mph68%30.01 "Hg10 mi
11:30 PM
Jul 29
68 °FPassing clouds.6 mph64%30.01 "HgN/A
11:00 PM68 °FClear.3 mph64%30.01 "Hg10 mi
10:30 PM70 °FClear.3 mph60%30.01 "Hg10 mi
10:00 PM70 °FClear.3 mph60%30.01 "Hg10 mi
9:30 PM72 °FClear.6 mph57%30.01 "Hg10 mi
9:00 PM73 °FSunny.8 mph50%30.01 "Hg10 mi
8:30 PM75 °FSunny.13 mph47%30.01 "Hg10 mi
8:00 PM77 °FSunny.10 mph42%30.01 "Hg10 mi
7:30 PM79 °FSunny.10 mph42%30.01 "Hg10 mi
7:00 PM81 °FSunny.13 mph34%30.01 "Hg10 mi
6:30 PM82 °FSunny.10 mph30%30.01 "Hg10 mi
6:00 PM84 °FPassing clouds.10 mph27%30.01 "HgN/A
5:30 PM84 °FPassing clouds.10 mph27%30.01 "HgN/A
5:00 PM84 °FScattered clouds.8 mph25%30.01 "HgN/A
4:30 PM86 °FScattered clouds.8 mph24%30.01 "HgN/A
4:00 PM86 °FPassing clouds.10 mph22%30.01 "HgN/A
3:30 PM86 °FPassing clouds.8 mph24%30.01 "HgN/A
3:00 PM86 °FPassing clouds.10 mph24%30.01 "HgN/A
2:30 PM86 °FPassing clouds.8 mph22%30.01 "HgN/A
2:00 PM86 °FPassing clouds.8 mph20%30.01 "HgN/A
1:30 PM86 °FPassing clouds.10 mph20%30.01 "HgN/A
1:00 PM84 °FPassing clouds.8 mph22%30.04 "HgN/A
12:30 PM84 °FPassing clouds.8 mph22%30.04 "HgN/A
12:00 PM84 °FPassing clouds.8 mph22%30.04 "HgN/A
11:30 AM82 °FPassing clouds.6 mph25%30.04 "HgN/A
11:00 AM82 °FPassing clouds.6 mph25%30.04 "HgN/A
10:30 AM81 °FPassing clouds.3 mph23%30.04 "HgN/A
10:00 AM81 °FPassing clouds.3 mph28%30.04 "HgN/A
9:30 AM79 °FPassing clouds.6 mph34%30.04 "HgN/A
9:00 AM77 °FPassing clouds.6 mph39%30.04 "HgN/A
8:30 AM75 °FPassing clouds.3 mph44%30.04 "HgN/A
8:00 AM73 °FSunny.1 mph53%30.04 "Hg10 mi
7:30 AM68 °FSunny.1 mph64%30.04 "Hg10 mi
7:00 AM64 °FSunny.1 mph73%30.04 "Hg10 mi
6:30 AM63 °FSunny.1 mph73%30.04 "Hg10 mi
6:00 AM61 °FClear.3 mph72%30.04 "Hg10 mi
5:30 AM57 °FClear.1 mph77%30.04 "Hg10 mi
5:00 AM59 °FClear.1 mph72%30.04 "Hg10 mi
Weather by CustomWeather, © 2014

See weather overviewHow to use our weather pages